1483308001.06,20307,10.75,73194.8,-5.73,-39.85,-40.09,0,*5D
1483308002.27,20308,10.75,73188.8,-5.71,-39.65,-40.15,0,*53
1483308003.52,20309,10.75,73182.3,-5.71,-39.79,-40.15,0,*5F
1483308004.76,20310,10.75,73186.0,-5.71,-39.79,-40.03,0,*50
1483308005.98,20311,10.75,73194.0,-5.71,-39.85,-40.03,0,*52
1483308007.19,20312,10.75,73194.0,-5.71,-39.85,-40.15,0,*56
1483308008.43,20313,10.75,73190.5,-5.71,-39.65,-39.97,0,*5D
1483308009.68,20314,10.75,73180.3,-5.71,-39.59,-39.85,0,*56
1483308010.94,20315,10.75,73190.5,-5.69,-39.59,-39.91,0,*5B
1483308012.23,20316,10.75,73190.5,-5.69,-39.71,-40.09,0,*5D
1483308013.52,20317,10.75,73198.8,-5.69,-39.71,-39.97,0,*55
1483308014.76,20318,10.75,73188.8,-5.71,-39.79,-40.03,0,*58
1483308016.03,20319,10.75,73184.8,-5.69,-39.79,-40.15,0,*57
1483308017.28,20320,10.75,73182.5,-5.69,-39.97,-40.35,0,*5F
1483308018.53,20321,10.75,73182.8,-5.69,-39.97,-40.35,0,*5E
1483308019.82,20322,10.75,73184.8,-5.69,-39.97,-40.41,0,*5E
1483308021.09,20323,10.75,73188.0,-5.69,-40.15,-40.41,0,*5B
1483308022.32,20324,10.75,73172.3,-5.69,-40.35,-40.73,0,*5F
1483308023.56,20325,10.75,73178.5,-5.69,-40.15,-40.53,0,*5E
1483308024.82,20326,10.75,73166.3,-5.69,-40.09,-40.35,0,*50
1483308026.1,20327,10.75,73176.0,-5.69,-39.97,-40.41,0,*5B
1483308027.36,20328,10.75,73174.5,-5.69,-39.97,-40.35,0,*57
1483308028.59,20329,10.75,73180.5,-5.71,-40.21,-40.47,0,*59
1483308029.84,20330,10.75,73180.3,-5.69,-39.97,-40.47,0,*5B
1483308031.13,20331,10.75,73178.3,-5.69,-39.79,-40.21,0,*5A
1483308032.42,20332,10.75,73178.0,-5.69,-39.79,-40.21,0,*59
1483308033.64,20333,10.75,73176.8,-5.71,-39.85,-40.15,0,*55
1483308034.9,20334,10.75,73184.5,-5.69,-40.09,-40.35,0,*53
1483308036.16,20335,10.75,73188.5,-5.71,-40.41,-40.79,0,*5F
1483308037.44,20336,10.75,73184.8,-5.69,-40.41,-40.79,0,*55
1483308038.68,20337,10.75,73192.3,-5.71,-40.79,-41.03,0,*5A
1483308039.91,20338,10.75,73188.8,-5.69,-40.73,-41.11,0,*55
1483308041.17,20339,10.75,73184.8,-5.71,-40.41,-40.79,0,*53
1483308042.42,20340,10.75,73176.5,-5.69,-40.15,-40.53,0,*5D
1483308043.66,20341,10.75,73186.3,-5.71,-40.47,-40.59,0,*58
1483308044.92,20342,10.75,73190.3,-5.71,-40.59,-40.85,0,*55
1483308046.15,20343,10.75,73192.8,-5.71,-40.29,-40.65,0,*5D
1483308047.39,20344,10.75,73196.8,-5.71,-40.47,-40.85,0,*5C
1483308048.63,20345,10.75,73184.0,-5.71,-40.41,-40.65,0,*55
1483308049.89,20346,10.75,73184.0,-5.71,-40.21,-40.59,0,*5F
1483308051.13,20347,10.75,73186.5,-5.71,-40.03,-40.41,0,*57
1483308052.4,20348,10.75,73198.5,-5.71,-40.41,-40.59,0,*57
1483308053.66,20349,10.75,73192.0,-5.71,-40.21,-40.41,0,*59
1483308054.95,20350,10.75,73188.3,-5.69,-39.79,-40.21,0,*5D
1483308056.21,20351,10.75,73188.3,-5.71,-39.97,-40.29,0,*5D
1483308057.45,20352,10.75,73182.8,-5.71,-39.85,-40.21,0,*55
1483308058.68,20353,10.75,73190.5,-5.71,-39.97,-40.15,0,*50
1483308059.95,20354,10.75,73184.8,-5.71,-39.79,-40.29,0,*58
1483308061.25,20355,10.75,73186.8,-5.69,-39.79,-40.21,0,*58
1483308062.48,20356,10.75,73176.0,-5.71,-39.85,-40.29,0,*59
1483308063.73,20357,10.75,73184.0,-5.71,-39.85,-40.21,0,*50
1483308064.94,20358,10.75,73176.0,-5.71,-40.03,-40.47,0,*5F
1483308066.16,20359,10.75,73184.8,-5.71,-40.21,-40.47,0,*5E
1483308067.41,20360,10.75,73182.0,-5.71,-40.15,-40.41,0,*55
1483308068.65,20361,10.75,73178.3,-5.71,-40.09,-40.47,0,*5F
1483308069.86,20362,10.75,73186.8,-5.71,-40.47,-40.65,0,*56
1483308071.12,20363,10.75,73180.3,-5.69,-40.41,-40.73,0,*5F
1483308072.35,20364,10.75,73192.0,-5.71,-40.47,-40.79,0,*5D
1483308073.6,20365,10.75,73176.8,-5.71,-40.15,-40.41,0,*50
1483308074.82,20366,10.75,73176.5,-5.71,-40.15,-40.47,0,*55
1483308076.05,20367,10.75,73182.8,-5.71,-40.21,-40.47,0,*53
1483308077.31,20368,10.75,73192.0,-5.71,-40.41,-40.79,0,*57
1483308078.58,20369,10.75,73196.0,-5.71,-40.41,-40.59,0,*54
1483308079.85,20370,10.75,73188.3,-5.71,-40.41,-40.85,0,*5D
1483308081.09,20371,10.75,73182.8,-5.71,-40.47,-40.85,0,*5A
1483308082.33,20372,10.75,73190.5,-5.71,-40.47,-40.85,0,*59
1483308083.59,20373,10.75,73190.3,-5.71,-40.29,-40.59,0,*51
1483308084.82,20374,10.75,73196.3,-5.71,-40.29,-40.65,0,*59
1483308086.04,20375,10.75,73192.8,-5.71,-40.15,-40.47,0,*57
1483308087.27,20376,10.75,73184.5,-5.71,-40.21,-40.47,0,*53
1483308088.53,20377,10.75,73186.0,-5.71,-39.97,-40.29,0,*59
1483308089.79,20378,10.75,73190.3,-5.73,-40.09,-40.53,0,*50
1483308091.05,20379,10.75,73172.5,-5.71,-39.97,-40.21,0,*5F
1483308092.31,20380,10.75,73168.8,-5.71,-39.97,-40.29,0,*51
1483308093.54,20381,10.75,73176.5,-5.73,-40.35,-40.53,0,*59
1483308094.8,20382,10.75,73172.3,-5.73,-40.09,-40.35,0,*55
1483308096.03,20383,10.75,73174.0,-5.73,-40.03,-40.35,0,*5E
1483308097.27,20384,10.75,73174.0,-5.71,-39.85,-40.29,0,*56
1483308098.49,20385,10.75,73178.0,-5.71,-40.15,-40.47,0,*58
1483308099.71,20386,10.75,73188.5,-5.71,-40.15,-40.47,0,*5B
1483308100.97,20387,10.75,73170.8,-5.71,-40.41,-40.59,0,*54
1483308102.24,20388,10.75,73176.5,-5.71,-40.29,-40.59,0,*55
1483308103.44,20389,10.75,73176.0,-5.71,-40.03,-40.47,0,*53
1483308104.7,20390,10.75,73168.5,-5.73,-40.03,-40.29,0,*51
1483308105.96,20391,10.75,73170.3,-5.73,-39.91,-40.21,0,*5D
1483308107.25,20392,10.75,73164.8,-5.69,-40.09,-40.41,0,*5C
1483308108.51,20393,10.75,73168.3,-5.71,-40.21,-40.59,0,*57
1483308109.77,20394,10.75,73162.8,-5.71,-40.21,-40.59,0,*50
1483308111.01,20395,10.75,73168.5,-5.71,-40.41,-40.65,0,*58
1483308112.27,20396,10.75,73172.3,-5.71,-40.29,-40.59,0,*5A
1483308113.5,20397,10.75,73172.3,-5.71,-40.21,-40.47,0,*5C
1483308114.74,20398,10.75,73170.5,-5.71,-40.47,-40.85,0,*5D
1483308115.97,20399,10.75,73172.3,-5.73,-40.47,-40.65,0,*50
1483308117.23,20400,10.75,73172.0,-5.73,-40.09,-40.47,0,*5D
1483308118.49,20401,10.75,73170.3,-5.73,-40.09,-40.35,0,*59
1483308119.74,20402,10.75,73170.8,-5.73,-40.29,-40.53,0,*58
1483308120.97,20403,10.75,73166.3,-5.75,-40.21,-40.35,0,*57
1483308122.21,20404,10.75,73160.0,-5.75,-39.91,-40.29,0,*58
1483308123.44,20405,10.75,73170.0,-5.73,-40.03,-40.47,0,*52
1483308124.69,20406,10.75,73162.3,-5.73,-40.29,-40.53,0,*5C
1483308125.95,20407,10.75,73170.3,-5.73,-40.09,-40.35,0,*5F
1483308127.18,20408,10.75,73168.5,-5.73,-40.03,-40.35,0,*5A
1483308128.44,20409,10.75,73166.0,-5.73,-39.91,-40.21,0,*5B
1483308129.7,20410,10.75,73166.8,-5.73,-39.85,-40.21,0,*56
1483308130.97,20411,10.75,73166.3,-5.73,-39.85,-40.09,0,*5D
1483308132.23,20412,10.75,73170.3,-5.73,-39.85,-40.09,0,*5E
1483308133.49,20413,10.75,73172.8,-5.73,-39.91,-40.09,0,*5A
1483308134.78,20414,10.75,73168.3,-5.69,-39.71,-39.97,0,*51
1483308136.08,20415,10.75,73164.5,-5.69,-39.79,-40.09,0,*51
1483308137.32,20416,10.75,73168.3,-5.71,-39.79,-40.03,0,*51
1483308138.6,20417,10.75,73164.5,-5.69,-39.71,-39.97,0,*52
1483308139.85,20418,10.75,73164.3,-5.71,-40.03,-40.41,0,*5A
1483308141.06,20419,10.75,73166.8,-5.71,-40.15,-40.47,0,*5A
1483308142.3,20420,10.75,73164.0,-5.71,-40.03,-40.41,0,*51
1483308143.53,20421,10.75,73160.0,-5.71,-40.29,-40.47,0,*5E
1483308144.76,20422,10.75,73170.5,-5.71,-40.21,-40.65,0,*55
1483308146.03,20423,10.75,73158.5,-5.71,-40.41,-40.59,0,*5D
1483308147.27,20424,10.75,73162.0,-5.71,-40.03,-40.29,0,*5B
1483308148.52,20425,10.75,73156.3,-5.71,-39.97,-40.29,0,*59
1483308149.78,20426,10.75,73164.8,-5.69,-40.09,-40.35,0,*57
1483308151.05,20427,10.75,73162.0,-5.71,-39.97,-40.41,0,*55
1483308152.28,20428,10.75,73158.8,-5.71,-40.03,-40.29,0,*57
1483308153.55,20429,10.75,73170.3,-5.69,-40.15,-40.41,0,*56
1483308154.77,20430,10.75,73162.3,-5.71,-40.15,-40.47,0,*51
1483308156.01,20431,10.75,73162.5,-5.71,-40.03,-40.29,0,*5F
1483308157.22,20432,10.75,73156.8,-5.71,-40.15,-40.47,0,*53
1483308158.48,20433,10.75,73166.8,-5.73,-40.29,-40.65,0,*5F
1483308159.7,20434,10.75,73170.3,-5.71,-40.15,-40.47,0,*55
1483308160.96,20435,10.75,73170.8,-5.71,-40.29,-40.59,0,*54
1483308162.22,20436,10.75,73166.5,-5.71,-40.29,-40.59,0,*57
1483308163.45,20437,10.75,73178.0,-5.71,-40.29,-40.47,0,*59
1483308164.68,20438,10.69,73174.5,-5.71,-40.47,-40.79,0,*53
1483308165.95,20439,10.75,73176.0,-5.71,-40.59,-40.97,0,*5D
1483308167.19,20440,10.75,73164.0,-5.71,-40.47,-40.85,0,*5F
1483308168.44,20441,10.75,73172.8,-5.73,-40.21,-40.53,0,*57
1483308169.67,20442,10.75,73184.0,-5.73,-40.35,-40.73,0,*53
1483308170.91,20443,10.75,73172.8,-5.75,-40.09,-40.47,0,*5C
1483308172.17,20444,10.75,73174.0,-5.73,-39.91,-40.09,0,*58
1483308173.42,20445,10.75,73176.8,-5.73,-40.21,-40.35,0,*53
1483308174.68,20446,10.75,73176.0,-5.73,-39.91,-40.21,0,*50
1483308175.95,20447,10.75,73172.0,-5.73,-39.91,-40.21,0,*51
1483308177.21,20448,10.75,73184.3,-5.73,-39.85,-40.09,0,*51
1483308178.48,20449,10.75,73182.5,-5.71,-39.79,-39.97,0,*58
1483308179.72,20450,10.75,73176.5,-5.71,-39.65,-39.79,0,*5D
1483308180.98,20451,10.75,73180.8,-5.73,-39.85,-40.21,0,*53
1483308182.25,20452,10.75,73186.8,-5.71,-39.71,-39.97,0,*5A
1483308183.46,20453,10.75,73176.5,-5.71,-39.85,-40.03,0,*53
1483308184.75,20454,10.75,73174.0,-5.69,-39.59,-39.71,0,*57
1483308185.99,20455,10.75,73176.3,-5.71,-39.65,-39.97,0,*58
1483308187.21,20456,10.75,73176.5,-5.71,-39.47,-39.65,0,*56
1483308188.5,20457,10.75,73172.5,-5.69,-39.71,-40.09,0,*5F
1483308189.79,20458,10.75,73172.3,-5.69,-39.59,-39.79,0,*53
1483308191.03,20459,10.75,73182.0,-5.71,-39.29,-39.65,0,*51
1483308192.27,20460,10.75,73174.5,-5.71,-39.65,-39.97,0,*5E
1483308193.56,20461,10.75,73176.3,-5.69,-39.59,-39.71,0,*51
1483308194.8,20462,10.75,73186.0,-5.69,-39.91,-40.15,0,*5A
1483308196.08,20463,10.75,73172.3,-5.69,-39.41,-39.59,0,*50
1483308197.34,20464,10.75,73176.8,-5.67,-39.53,-39.79,0,*58
1483308198.6,20465,10.69,73180.8,-5.67,-39.53,-39.79,0,*59
1483308199.86,20466,10.75,73186.8,-5.67,-39.79,-39.97,0,*52
1483308201.11,20467,10.75,73174.0,-5.67,-39.53,-39.71,0,*53
1483308202.36,20468,10.75,73180.3,-5.67,-39.03,-39.23,0,*5E
1483308203.62,20469,10.75,73178.8,-5.65,-39.35,-39.59,0,*55
1483308204.85,20470,10.75,73188.8,-5.67,-39.53,-39.91,0,*5B
1483308206.11,20471,10.75,73184.3,-5.65,-39.53,-39.91,0,*58
1483308207.39,20472,10.75,73184.0,-5.65,-39.41,-39.71,0,*56
1483308208.68,20473,10.75,73176.3,-5.65,-39.41,-39.71,0,*57
1483308209.93,20474,10.75,73178.8,-5.65,-39.35,-39.59,0,*59
1483308211.19,20475,10.75,73180.0,-5.65,-39.71,-39.91,0,*5C
1483308212.46,20476,10.75,73182.8,-5.65,-39.71,-39.91,0,*5F
1483308213.75,20477,10.69,73186.5,-5.65,-39.71,-40.09,0,*51
1483308215.03,20478,10.75,73186.3,-5.65,-39.71,-40.21,0,*54
1483308216.33,20479,10.75,73192.5,-5.65,-39.79,-40.21,0,*5D
1483308217.62,20480,10.75,73180.5,-5.65,-40.09,-40.41,0,*54
1483308218.88,20481,10.75,73180.8,-5.67,-40.09,-40.41,0,*57
1483308220.14,20482,10.75,73188.0,-5.67,-40.09,-40.41,0,*54
1483308221.41,20483,10.69,73180.0,-5.65,-40.15,-40.41,0,*5A
1483308222.67,20484,10.75,73184.3,-5.65,-40.09,-40.35,0,*53
1483308223.94,20485,10.75,73178.5,-5.65,-40.15,-40.41,0,*5C
1483308225.22,20486,10.69,73174.5,-5.65,-40.21,-40.41,0,*58
1483308226.43,20487,10.75,73192.5,-5.67,-40.35,-40.53,0,*5D
1483308227.65,20488,10.75,73198.3,-5.65,-40.35,-40.73,0,*52
1483308228.87,20489,10.75,73186.0,-5.67,-40.15,-40.53,0,*51
1483308230.15,20490,10.75,73168.5,-5.65,-39.97,-40.41,0,*5C
1483308231.42,20491,10.75,73166.3,-5.65,-40.15,-40.41,0,*59
1483308232.69,20492,10.75,73162.0,-5.67,-40.09,-40.41,0,*55
1483308233.95,20493,10.75,73166.3,-5.67,-40.09,-40.41,0,*54
1483308235.19,20494,10.69,73162.5,-5.65,-40.15,-40.53,0,*5F
1483308236.45,20495,10.69,73160.3,-5.67,-40.21,-40.59,0,*51
1483308237.71,20496,10.75,73172.8,-5.67,-40.41,-40.59,0,*54
1483308238.95,20497,10.75,73166.0,-5.67,-40.41,-40.91,0,*51
1483308240.18,20498,10.75,73160.0,-5.67,-40.73,-40.97,0,*59
1483308241.42,20499,10.69,73138.3,-5.67,-40.59,-40.91,0,*56
1483308242.62,20500,10.75,73148.3,-5.67,-40.53,-40.91,0,*5D
1483308243.89,20501,10.75,73168.0,-5.71,-40.59,-40.97,0,*57
1483308245.15,20502,10.69,73158.0,-5.71,-40.21,-40.59,0,*59
1483308246.41,20503,10.75,73166.3,-5.69,-40.09,-40.35,0,*51
1483308247.67,20504,10.75,73166.0,-5.69,-39.71,-39.91,0,*57
1483308248.97,20505,10.75,73168.3,-5.69,-39.59,-39.79,0,*5A
1483308250.23,20506,10.69,73162.8,-5.69,-39.59,-39.91,0,*5F
1483308251.52,20507,10.75,73166.3,-5.69,-39.71,-40.09,0,*5B
1483308252.79,20508,10.75,73160.3,-5.67,-39.59,-39.97,0,*59
1483308254.05,20509,10.69,73166.8,-5.65,-39.71,-39.91,0,*56
1483308255.29,20510,10.75,73170.8,-5.67,-39.59,-39.91,0,*56
1483308256.56,20511,10.69,73162.5,-5.67,-39.79,-40.09,0,*5A
1483308257.83,20512,10.69,73164.3,-5.67,-39.79,-40.09,0,*59
1483308259.04,20513,10.69,73170.0,-5.67,-39.91,-40.35,0,*51
1483308260.3,20514,10.69,73168.0,-5.65,-39.79,-40.15,0,*50
1483308261.59,20515,10.69,73166.3,-5.65,-39.79,-40.09,0,*5C
1483308262.85,20516,10.75,73176.8,-5.67,-39.97,-40.21,0,*57
1483308264.1,20517,10.69,73172.5,-5.67,-39.97,-40.21,0,*56
1483308265.39,20518,10.75,73168.5,-5.65,-40.09,-40.41,0,*54
1483308266.67,20519,10.75,73168.8,-5.65,-39.97,-40.41,0,*5C
1483308267.88,20520,10.69,73170.0,-5.67,-40.35,-40.73,0,*53
1483308269.14,20521,10.75,73174.3,-5.67,-40.41,-40.59,0,*59
1483308270.39,20522,10.69,73176.5,-5.67,-40.15,-40.41,0,*52
1483308271.67,20523,10.69,73170.8,-5.65,-40.09,-40.41,0,*5C
1483308272.89,20524,10.69,73168.8,-5.67,-40.15,-40.53,0,*57
1483308274.12,20525,10.69,73162.5,-5.67,-39.97,-40.35,0,*52
1483308275.38,20526,10.75,73178.5,-5.67,-40.09,-40.41,0,*5B
1483308276.64,20527,10.69,73172.5,-5.67,-39.97,-40.41,0,*53
1483308277.89,20528,10.69,73176.3,-5.67,-39.97,-40.21,0,*5A
1483308279.15,20529,10.75,73180.5,-5.67,-39.79,-39.97,0,*58
1483308280.42,20530,10.69,73178.0,-5.67,-39.71,-40.09,0,*51
1483308281.71,20531,10.69,73176.3,-5.65,-39.71,-40.21,0,*58
1483308282.99,20532,10.75,73178.0,-5.65,-39.71,-39.97,0,*58
1483308284.26,20533,10.69,73184.3,-5.67,-39.79,-40.09,0,*5A
1483308285.52,20534,10.69,73186.3,-5.65,-39.91,-40.21,0,*53
1483308286.77,20535,10.75,73182.8,-5.65,-39.97,-40.35,0,*51
1483308288.01,20536,10.69,73182.8,-5.67,-39.91,-40.21,0,*53
1483308289.24,20537,10.75,73184.3,-5.67,-39.97,-40.35,0,*51
1483308290.49,20538,10.69,73178.3,-5.65,-39.97,-40.35,0,*5C
1483308291.78,20539,10.69,73174.8,-5.65,-39.79,-40.21,0,*58
1483308293.01,20540,10.69,73164.8,-5.65,-39.91,-40.35,0,*55
1483308294.28,20541,10.75,73168.8,-5.65,-39.91,-40.21,0,*51
1483308295.53,20542,10.75,73176.5,-5.65,-39.97,-40.35,0,*51
1483308296.74,20543,10.69,73178.5,-5.67,-40.15,-40.35,0,*56
1483308298.01,20544,10.75,73168.5,-5.65,-39.79,-40.15,0,*55
1483308299.27,20545,10.69,73174.0,-5.65,-39.91,-40.21,0,*55
1483308300.56,20546,10.75,73180.0,-5.65,-40.09,-40.41,0,*5F
1483308301.79,20547,10.69,73178.3,-5.67,-40.21,-40.53,0,*55
1483308303.04,20548,10.69,73182.0,-5.65,-39.97,-40.35,0,*5B
1483308304.31,20549,10.75,73182.3,-5.65,-39.79,-40.15,0,*58
1483308305.57,20550,10.75,73176.5,-5.65,-39.79,-40.15,0,*50
1483308306.86,20551,10.69,73170.0,-5.65,-39.79,-40.09,0,*5C
1483308308.13,20552,10.75,73184.8,-5.65,-39.79,-40.15,0,*52
1483308309.4,20553,10.69,73168.3,-5.65,-39.79,-40.15,0,*53
1483308310.66,20554,10.69,73166.5,-5.65,-39.91,-40.09,0,*5F
1483308311.91,20555,10.75,73168.5,-5.65,-40.15,-40.53,0,*53
1483308313.2,20556,10.75,73184.8,-5.65,-40.09,-40.41,0,*5E
1483308314.42,20557,10.69,73180.8,-5.67,-39.97,-40.35,0,*57
1483308315.71,20558,10.69,73170.3,-5.65,-40.09,-40.41,0,*50
1483308316.95,20559,10.69,73170.8,-5.67,-39.91,-40.41,0,*5C
1483308318.2,20560,10.69,73172.0,-5.65,-39.97,-40.35,0,*51
1483308319.44,20561,10.75,73184.5,-5.65,-39.91,-40.35,0,*56
1483308320.71,20562,10.69,73180.0,-5.65,-39.91,-40.41,0,*56
1483308321.99,20563,10.69,73170.3,-5.65,-39.97,-40.41,0,*51
1483308323.27,20564,10.75,73178.8,-5.65,-39.97,-40.21,0,*50
1483308324.53,20565,10.69,73168.0,-5.65,-39.79,-40.15,0,*56
1483308325.77,20566,10.69,73162.5,-5.65,-40.15,-40.35,0,*53
1483308327.04,20567,10.69,73168.3,-5.65,-39.91,-40.21,0,*55
1483308328.3,20568,10.69,73174.8,-5.65,-39.91,-40.21,0,*5A
1483308329.56,20569,10.69,73180.3,-5.65,-39.91,-40.21,0,*5B
1483308330.84,20570,10.69,73170.3,-5.65,-39.97,-40.21,0,*55
1483308332.11,20571,10.69,73180.5,-5.63,-39.71,-40.09,0,*50
1483308333.35,20572,10.69,73174.0,-5.63,-39.71,-40.15,0,*5E
1483308334.59,20573,10.69,73172.5,-5.63,-39.85,-40.09,0,*59
1483308335.83,20574,10.69,73184.5,-5.65,-40.15,-40.35,0,*50
1483308337.07,20575,10.69,73184.8,-5.65,-40.15,-40.53,0,*51
1483308338.36,20576,10.69,73170.8,-5.65,-40.09,-40.41,0,*5C
1483308339.59,20577,10.69,73170.3,-5.67,-40.09,-40.35,0,*5C
1483308340.88,20578,10.69,73182.8,-5.65,-40.09,-40.41,0,*52
1483308342.12,20579,10.69,73172.8,-5.65,-39.91,-40.35,0,*5F
1483308343.38,20580,10.69,73166.8,-5.65,-39.79,-40.15,0,*5D
1483308344.62,20581,10.69,73172.8,-5.67,-39.91,-40.21,0,*5F
1483308345.87,20582,10.69,73178.0,-5.65,-39.97,-40.35,0,*5D
1483308347.16,20583,10.69,73178.0,-5.65,-39.79,-40.21,0,*59
1483308348.42,20584,10.69,73182.5,-5.65,-40.09,-40.35,0,*52
1483308349.7,20585,10.69,73178.8,-5.65,-40.21,-40.41,0,*5A
1483308350.98,20586,10.69,73186.5,-5.65,-40.41,-40.79,0,*54
1483308352.22,20587,10.69,73176.3,-5.65,-40.15,-40.53,0,*5C
1483308353.48,20588,10.69,73176.8,-5.65,-39.97,-40.35,0,*57
1483308354.77,20589,10.69,73178.8,-5.65,-40.09,-40.41,0,*5C
1483308356.02,20590,10.69,73182.3,-5.65,-39.97,-40.35,0,*5E
1483308357.31,20591,10.69,73180.0,-5.65,-40.09,-40.41,0,*55
1483308358.58,20592,10.69,73188.3,-5.65,-40.15,-40.41,0,*5B
1483308359.82,20593,10.69,73182.0,-5.65,-40.53,-40.79,0,*53
1483308361.08,20594,10.69,73176.0,-5.65,-40.35,-40.59,0,*56
1483308362.34,20595,10.69,73182.5,-5.65,-40.35,-40.59,0,*57
1483308363.62,20596,10.69,73186.8,-5.65,-40.41,-40.79,0,*55
1483308364.88,20597,10.69,73188.5,-5.65,-40.59,-40.91,0,*5B
1483308366.09,20598,10.69,73184.3,-5.67,-40.53,-40.91,0,*5C
1483308367.35,20599,10.69,73186.8,-5.67,-40.59,-40.97,0,*51
1483308368.57,20600,10.69,73186.3,-5.67,-40.53,-40.79,0,*58
1483308369.83,20601,10.69,73176.0,-5.67,-40.41,-40.79,0,*5A
1483308371.08,20602,10.69,73180.3,-5.67,-40.41,-40.79,0,*59
1483308372.29,20603,10.69,73182.0,-5.67,-40.35,-40.53,0,*53
1483308373.57,20604,10.69,73180.3,-5.69,-39.97,-40.41,0,*5F
1483308374.78,20605,10.69,73168.3,-5.67,-39.91,-40.35,0,*55
1483308376.04,20606,10.69,73178.5,-5.69,-40.09,-40.35,0,*57
1483308377.32,20607,10.69,73176.5,-5.69,-40.21,-40.59,0,*56
1483308378.6,20608,10.69,73174.8,-5.69,-40.21,-40.59,0,*59
1483308379.86,20609,10.69,73180.8,-5.69,-40.41,-40.73,0,*56
1483308381.13,20610,10.69,73178.5,-5.69,-40.15,-40.59,0,*57
1483308382.37,20611,10.69,73182.5,-5.69,-40.15,-40.53,0,*5C
1483308383.63,20612,10.69,73178.8,-5.69,-40.09,-40.35,0,*52
1483308384.92,20613,10.69,73174.0,-5.69,-39.97,-40.41,0,*59
1483308386.18,20614,10.69,73178.0,-5.69,-40.09,-40.35,0,*54
1483308387.46,20615,10.69,73184.8,-5.69,-39.97,-40.41,0,*5F
1483308388.7,20616,10.69,73178.3,-5.69,-40.15,-40.53,0,*5B
1483308389.94,20617,10.69,73184.3,-5.67,-40.35,-40.59,0,*5C
1483308391.17,20618,10.69,73186.0,-5.67,-40.59,-40.91,0,*5D
1483308392.43,20619,10.69,73180.8,-5.69,-40.73,-40.97,0,*5C
1483308393.72,20620,10.69,73176.5,-5.69,-40.59,-40.97,0,*5E
1483308394.97,20621,10.69,73176.0,-5.69,-40.79,-41.17,0,*54
1483308396.23,20622,10.69,73186.3,-5.69,-40.79,-41.29,0,*5A
1483308397.48,20623,10.69,73188.3,-5.69,-40.97,-41.29,0,*5B
1483308398.75,20624,10.69,73188.3,-5.71,-40.97,-41.23,0,*5F
1483308400.01,20625,10.69,73192.0,-5.71,-40.97,-41.23,0,*5E
1483308401.27,20626,10.69,73184.3,-5.73,-40.91,-41.23,0,*59
1483308402.48,20627,10.69,73176.5,-5.75,-40.65,-41.03,0,*57
1483308403.72,20628,10.69,73176.5,-5.73,-40.91,-41.11,0,*56
1483308405.0,20629,10.69,73178.3,-5.73,-40.85,-41.23,0,*53
1483308406.24,20630,10.69,73180.8,-5.73,-40.73,-41.03,0,*50
1483308407.47,20631,10.69,73176.0,-5.75,-40.85,-41.11,0,*5D
1483308408.69,20632,10.69,73170.0,-5.75,-40.91,-41.11,0,*5B
1483308409.9,20633,10.69,73162.0,-5.75,-40.53,-40.91,0,*5D
1483308411.11,20634,10.69,73166.8,-5.75,-40.53,-40.91,0,*5A
1483308412.31,20635,10.69,73182.8,-5.75,-40.65,-40.91,0,*5E
1483308413.52,20636,10.69,73188.8,-5.75,-40.65,-41.11,0,*54
1483308414.76,20637,10.69,73184.3,-5.75,-40.47,-40.85,0,*59
1483308415.96,20638,10.69,73190.8,-5.75,-40.53,-40.91,0,*56
1483308417.22,20639,10.69,73184.0,-5.77,-40.35,-40.59,0,*51
1483308418.48,20640,10.69,73192.8,-5.77,-40.29,-40.73,0,*5A
1483308419.76,20641,10.69,73184.8,-5.77,-40.29,-40.59,0,*53
1483308421.02,20642,10.69,73180.8,-5.77,-40.09,-40.53,0,*58
1483308422.31,20643,10.69,73176.8,-5.77,-40.09,-40.41,0,*5A
1483308423.54,20644,10.69,73188.0,-5.77,-40.35,-40.73,0,*53
1483308424.83,20645,10.69,73186.0,-5.77,-40.41,-40.79,0,*5B
1483308426.09,20646,10.69,73190.3,-5.77,-40.41,-40.73,0,*52
1483308427.32,20647,10.69,73190.0,-5.77,-40.35,-40.73,0,*50
1483308428.59,20648,10.69,73190.3,-5.77,-40.15,-40.41,0,*5C
1483308429.87,20649,10.69,73190.3,-5.77,-39.97,-40.41,0,*59
1483308431.16,20650,10.69,73182.5,-5.77,-39.97,-40.41,0,*51
1483308432.36,20651,10.69,73182.3,-5.75,-40.03,-40.35,0,*52
1483308433.6,20652,10.69,73174.3,-5.75,-39.85,-40.21,0,*54
1483308434.86,20653,10.69,73184.5,-5.73,-39.91,-40.21,0,*56
1483308436.07,20654,10.69,73188.3,-5.75,-40.03,-40.47,0,*52
1483308437.3,20655,10.69,73184.5,-5.75,-40.21,-40.47,0,*53
1483308438.53,20656,10.69,73184.8,-5.75,-40.03,-40.21,0,*50
1483308439.77,20657,10.69,73182.3,-5.75,-39.91,-40.09,0,*5E
1483308441.01,20658,10.69,73182.5,-5.75,-39.85,-40.09,0,*54
1483308442.25,20659,10.69,73178.3,-5.75,-39.85,-40.21,0,*5F
1483308443.54,20660,10.69,73186.8,-5.73,-39.71,-40.09,0,*52
1483308444.81,20661,10.69,73178.3,-5.75,-39.71,-40.09,0,*55
1483308446.07,20662,10.69,73182.8,-5.73,-39.85,-40.09,0,*5B
1483308447.33,20663,10.69,73180.8,-5.73,-39.85,-40.09,0,*5A
1483308448.6,20664,10.69,73178.8,-5.73,-39.85,-40.09,0,*5D
1483308449.89,20665,10.69,73186.3,-5.73,-39.71,-40.09,0,*57
1483308451.15,20666,10.69,73182.5,-5.73,-39.85,-40.09,0,*5F
1483308452.41,20667,10.69,73178.5,-5.73,-39.85,-40.21,0,*54
1483308453.67,20668,10.69,73182.0,-5.73,-39.85,-40.29,0,*53
1483308454.94,20669,10.69,73184.5,-5.73,-39.91,-40.29,0,*57
1483308456.2,20670,10.69,73176.8,-5.73,-39.85,-40.21,0,*52
1483308457.46,20671,10.69,73174.5,-5.73,-39.85,-40.09,0,*59
1483308458.68,20672,10.69,73178.3,-5.71,-39.85,-40.15,0,*55
1483308459.92,20673,10.69,73186.3,-5.71,-39.85,-40.29,0,*5B
1483308461.18,20674,10.69,73180.0,-5.71,-39.97,-40.29,0,*5F
1483308462.42,20675,10.69,73180.3,-5.71,-39.85,-40.29,0,*5D
1483308463.65,20676,10.69,73184.8,-5.71,-40.03,-40.29,0,*5E
1483308464.91,20677,10.69,73176.5,-5.69,-39.91,-40.21,0,*5B
1483308466.15,20678,10.69,73184.5,-5.71,-39.85,-40.21,0,*58
1483308467.42,20679,10.69,73180.0,-5.69,-39.79,-40.15,0,*54
1483308468.68,20680,10.69,73174.0,-5.71,-39.97,-40.29,0,*54
1483308469.91,20681,10.69,73174.8,-5.73,-40.03,-40.35,0,*59
1483308471.17,20682,10.69,73180.0,-5.73,-40.09,-40.53,0,*50
1483308472.43,20683,10.69,73182.3,-5.73,-40.09,-40.47,0,*54
1483308473.67,20684,10.69,73186.0,-5.71,-40.03,-40.29,0,*53
1483308474.91,20685,10.69,73174.8,-5.69,-39.91,-40.15,0,*51
1483308476.17,20686,10.69,73178.5,-5.71,-39.97,-40.41,0,*5C
1483308477.41,20687,10.69,73180.8,-5.71,-39.85,-40.29,0,*50
1483308478.65,20688,10.69,73174.5,-5.71,-39.85,-40.21,0,*57
1483308479.91,20689,10.69,73166.3,-5.71,-39.97,-40.21,0,*55
1483308481.15,20690,10.69,73164.8,-5.71,-39.85,-40.21,0,*5E
1483308482.39,20691,10.69,73176.5,-5.71,-39.85,-40.21,0,*5F
1483308483.61,20692,10.69,73176.5,-5.71,-39.85,-40.15,0,*5B
1483308484.85,20693,10.69,73172.3,-5.71,-40.03,-40.41,0,*5B
1483308486.11,20694,10.69,73170.5,-5.71,-39.97,-40.29,0,*51
1483308487.37,20695,10.69,73172.3,-5.69,-39.91,-40.21,0,*57
1483308488.65,20696,10.69,73168.5,-5.69,-40.09,-40.21,0,*5B
1483308489.92,20697,10.69,73166.0,-5.69,-39.79,-40.15,0,*54
1483308491.21,20698,10.69,73166.5,-5.69,-39.79,-40.21,0,*5C
1483308492.43,20699,10.69,73168.8,-5.71,-40.15,-40.47,0,*50
1483308493.66,20700,10.69,73174.5,-5.71,-40.21,-40.47,0,*56
1483308494.92,20701,10.69,73170.8,-5.71,-40.21,-40.59,0,*58
1483308496.18,20702,10.69,73172.8,-5.71,-40.21,-40.59,0,*5B
1483308497.43,20703,10.69,73174.3,-5.69,-40.21,-40.53,0,*59
1483308498.64,20704,10.69,73174.5,-5.71,-40.03,-40.47,0,*52
1483308499.86,20705,10.69,73166.3,-5.71,-40.15,-40.47,0,*54
1483308501.11,20706,10.69,73166.3,-5.71,-40.15,-40.41,0,*51